IRNSS-1C (40269 NORAD) Tracking and Keplerian Element Data

This shows tracking and keplerian element data for the satellite.

Feedback or suggestion? Click here.




ElementValue
Catalog40269
NameIRNSS-1C
Epoch Orbit1499
Epoch Day315.25424046
Epoch Year2018
RAAN224.3586
Inclination2.1769
Eccentricity0.0021823
Argument of Perigee15.8289
Mean Anonmoly344.7586
Mean Motion1.00272289
Decay Rate-1.64E-06
L11 40269U 14061A 18315.25424046 -.00000164 00000-0 00000+0 0 9999
L22 40269 2.1769 224.3586 0021823 15.8289 344.7586 1.00272289 14998

Live tracking and technical data element details for IRNSS-1C (NORAD 40269). IRNSS-1C can be tracked NOW for your location showing map with azimuth and elevation plus other details from your city location.

Track the satellite on the map from your city or location and see movement details for azimuth, elevation, latitude, longitude, range, height, and movement on the map or in text.







IsCatalogInMostPopularTable: catalog: 40269, numindb: 135
Update: records affected: 1



GetName: 40269 IRNSS-1C

Hit Count: updated at: Mon, 12 Nov 2018 17:35:44 GMT